DW1415 Weather Reports


time (UTC)temp
F
wind
direction
speed
knots
gust
knots
rain 1hr
in
rain 24hr
in
rain mn
in
humidity
%
barometer
mb
20260505194003 85 18 4.3 7.0 0.00 0.00 0.00 31 1004.5
20260505192004 84 31 7.0 13.0 0.00 0.00 0.00 30 1005.0
20260505191003 84 14 5.2 14.8 0.00 0.00 0.00 31 1005.0
20260505190505 84 0 4.3 11.3 0.00 0.00 0.00 33 1005.1
20260505190004 84 3 6.1 13.0 0.00 0.00 0.00 32 1005.1
20260505185503 84 6 6.1 12.2 0.00 0.00 0.00 32 1005.3
20260505185005 84 0 5.2 13.0 0.00 0.00 0.00 33 1005.3
20260505184003 84 34 3.5 7.8 0.00 0.00 0.00 35 1005.5
20260505180508 83 9 5.2 11.3 0.00 0.00 0.00 36 1005.7
20260505174503 83 4 4.3 8.7 0.00 0.00 0.00 39 1006.0
20260505173005 82 8 2.6 8.7 0.00 0.00 0.00 39 1005.9
20260505172503 82 18 1.7 7.0 0.00 0.00 0.00 42 1006.1
20260505172003 82 0 5.2 10.4 0.00 0.00 0.00 40 1006.2
20260505171503 82 15 4.3 10.4 0.00 0.00 0.00 40 1006.3
20260505164504 81 25 4.3 7.8 0.00 0.00 0.00 42 1006.6
20260505161503 80 13 4.3 6.1 0.00 0.00 0.00 43 1007.0
20260505161003 80 15 1.7 6.1 0.00 0.00 0.00 45 1007.1
20260505160503 79 29 1.7 8.7 0.00 0.00 0.00 45 1007.1
20260505153003 76 331 2.6 5.2 0.00 0.00 0.00 48 1007.5
20260505152504 76 14 1.7 5.2 0.00 0.00 0.00 49 1007.6
20260505151004 75 11 2.6 6.1 0.00 0.00 0.00 50 1007.8
20260505140503 71 12 3.5 10.4 0.00 0.00 0.00 55 1008.3
20260505125003 68 11 3.5 7.0 0.00 0.00 0.00 59 1008.1
20260505124002 67 20 2.6 4.3 0.00 0.00 0.00 61 1007.9
20260505123503 66 34 0.9 2.6 0.00 0.00 0.00 62 1007.9
20260505123004 66 9 2.6 5.2 0.00 0.00 0.00 62 1007.9
20260505122003 65 13 2.6 6.1 0.00 0.00 0.00 64 1008.0
20260505121503 65 6 3.5 7.0 0.00 0.00 0.00 65 1008.0
20260505120502 64 18 1.7 2.6 0.00 0.00 0.00 67 1008.1
20260505115503 63 7 2.6 5.2 0.00 0.00 0.00 68 1008.1
20260505113503 61 17 1.7 2.6 0.00 0.00 0.00 72 1008.2
20260505112503 60 26 0.9 1.7 0.00 0.00 0.00 73 1008.1
20260505112003 60 19 0.9 1.7 0.00 0.00 0.00 72 1008.3
20260505111004 60 17 0.0 0.9 0.00 0.00 0.00 72 1008.3
20260505100502 57 40 0.9 2.6 0.00 0.00 0.00 75 1007.9
20260505092003 58 5 0.0 1.7 0.00 0.00 0.00 74 1007.3
20260505084003 58 10 0.9 2.6 0.00 0.00 0.00 73 1007.3
20260505083503 58 11 0.9 2.6 0.00 0.00 0.00 73 1007.4
20260505075003 59 5 0.0 0.9 0.00 0.00 0.00 70 1007.4
20260505073004 59 5 0.0 0.9 0.00 0.00 0.00 69 1007.3
20260505072503 59 5 0.0 1.7 0.00 0.00 0.00 69 1007.3
20260505071003 59 5 0.9 1.7 0.00 0.00 0.00 69 1007.4
20260505070004 60 12 0.9 1.7 0.00 0.00 0.00 68 1007.3
20260505065503 60 12 0.0 1.7 0.00 0.00 0.00 68 1007.3
20260505064002 60 12 0.0 0.9 0.00 0.00 0.00 67 1007.3
20260505063004 60 12 0.0 1.7 0.00 0.00 0.00 67 1007.3
20260505062004 60 5 0.0 0.9 0.00 0.00 0.00 67 1007.4
20260505061003 60 5 0.0 1.7 0.00 0.00 0.00 66 1007.5
20260505055503 61 5 0.0 0.9 0.00 0.00 0.00 66 1007.5
20260505053004 61 17 0.9 2.6 0.00 0.00 0.00 64 1007.6
20260505051503 62 18 0.9 2.6 0.00 0.00 0.00 63 1007.7
20260505051003 62 5 0.0 2.6 0.00 0.00 0.00 63 1007.8
20260505050503 62 10 0.9 2.6 0.00 0.00 0.00 62 1007.8
20260505041503 62 12 1.7 2.6 0.00 0.00 0.00 60 1007.9
20260505040503 62 13 0.9 2.6 0.00 0.00 0.00 59 1008.0
20260505035003 63 12 0.9 2.6 0.00 0.00 0.00 58 1008.1
20260505034503 63 13 0.9 4.3 0.00 0.00 0.00 58 1008.1
20260505034003 63 15 1.7 4.3 0.00 0.00 0.00 58 1008.0
20260505033003 63 15 1.7 4.3 0.00 0.00 0.00 56 1008.1
20260505032503 63 24 2.6 7.0 0.00 0.00 0.00 56 1008.1
20260505032004 64 9 1.7 4.3 0.00 0.00 0.00 55 1008.1
20260505031503 64 23 2.6 4.3 0.00 0.00 0.00 55 1008.1
20260505031003 64 11 2.6 5.2 0.00 0.00 0.00 54 1008.1
20260505030003 64 27 1.7 5.2 0.00 0.00 0.00 54 1008.2
20260505025503 64 12 1.7 2.6 0.00 0.00 0.00 53 1008.2
20260505024003 65 24 1.7 4.3 0.00 0.00 0.00 52 1008.2
20260505023503 65 11 1.7 5.2 0.00 0.00 0.00 52 1008.3
20260505022504 65 27 2.6 7.0 0.00 0.00 0.00 52 1008.3
20260505022003 65 4 1.7 5.2 0.00 0.00 0.00 52 1008.3
20260505021003 66 11 2.6 5.2 0.00 0.00 0.00 51 1008.4
20260505020504 66 16 1.7 4.3 0.00 0.00 0.00 51 1008.3
20260505020005 66 7 1.7 2.6 0.00 0.00 0.00 50 1008.3
20260505015503 66 8 1.7 2.6 0.00 0.00 0.00 50 1008.2
20260505015003 66 25 1.7 6.1 0.00 0.00 0.00 51 1008.2
20260505014504 66 8 1.7 2.6 0.00 0.00 0.00 50 1008.2
20260505013003 67 12 2.6 5.2 0.00 0.00 0.00 48 1008.2
20260505012005 69 23 2.6 6.1 0.00 0.00 0.00 44 1008.0
20260505010503 69 5 2.6 5.2 0.00 0.00 0.00 39 1007.7
20260505005004 70 11 1.7 4.3 0.00 0.00 0.00 38 1007.4
20260505004504 70 20 1.7 6.1 0.00 0.00 0.00 38 1007.4
20260505003503 70 7 2.6 4.3 0.00 0.00 0.00 38 1007.3
20260505002503 70 18 2.6 5.2 0.00 0.00 0.00 38 1007.2
20260505002003 70 19 3.5 5.2 0.00 0.00 0.00 37 1007.1
20260505001004 71 16 1.7 7.0 0.00 0.00 0.00 37 1007.0
20260505000003 71 5 2.6 7.0 0.00 0.00 0.00 37 1006.8
20260504235503 71 8 2.6 7.0 0.00 0.00 0.00 37 1006.7
20260504235004 71 14 4.3 7.8 0.00 0.00 0.00 36 1006.7
20260504231003 72 12 4.3 8.7 0.00 0.00 0.00 35 1006.1
20260504225005 72 22 1.7 7.8 0.00 0.00 0.00 35 1006.0
20260504224003 73 16 3.5 7.0 0.00 0.00 0.00 34 1006.2
20260504222004 73 14 4.3 7.8 0.00 0.00 0.00 34 1006.2
20260504221005 73 18 4.3 7.8 0.00 0.00 0.00 34 1006.2
20260504220504 73 359 3.5 10.4 0.00 0.00 0.00 34 1006.3
20260504220004 73 321 2.6 7.0 0.00 0.00 0.00 34 1006.3
20260504215503 73 7 1.7 5.2 0.00 0.00 0.00 34 1006.5
20260504215004 73 4 2.6 7.8 0.00 0.00 0.00 34 1006.5
20260504214504 74 359 4.3 7.0 0.00 0.00 0.00 33 1006.6
20260504214004 73 14 3.5 7.0 0.00 0.00 0.00 34 1006.6
20260504212503 74 5 3.5 8.7 0.00 0.00 0.00 34 1006.6
20260504212004 74 9 2.6 7.8 0.00 0.00 0.00 33 1006.7
20260504211003 73 44 2.6 7.0 0.00 0.00 0.00 33 1006.8
20260504205003 74 1 3.5 7.8 0.00 0.00 0.00 33 1006.6
20260504204504 74 0 3.5 10.4 0.00 0.00 0.00 32 1006.7
20260504202504 74 17 3.5 7.0 0.00 0.00 0.00 33 1006.8
20260504202005 74 349 4.3 10.4 0.00 0.00 0.00 32 1006.7
20260504201505 74 359 2.6 7.0 0.00 0.00 0.00 32 1006.8
20260504195504 74 338 2.6 7.0 0.00 0.00 0.00 32 1007.1